Alabaster, AL

6:15 AM CDT on July 21, 2017 (GMT -0500)
Shelby County

Weather History for KEET - November, 2011

Change the Weather History Date:

Tuesday, November 15, 2011

  Actual Average Record
Temperature  
Mean Temperature 69 °F 55 °F  
Max Temperature 71 °F 66 °F 80 °F (1955)
Min Temperature 67 °F 44 °F 15 °F (1969)
Degree Days  
Heating Degree Days 0 10  
Month to date heating degree days 130 131  
Since 1 July heating degree days 300 254  
Cooling Degree Days 4    
Growing Degree Days 18 (Base 50)    
Moisture  
Dew Point 66 °F    
Average Humidity 94    
Maximum Humidity 100    
Minimum Humidity 87    
Precipitation  
Precipitation 0.34 in 0.17 in 1.38 in (2010)
Month to date precipitation 0.84 2.38  
Year to date precipitation 37.50 47.31  
Snow  
Snow 0.00 in - - ()
Month to date snowfall 0.0  
Since 1 July snowfall 0.0  
Since 1 September snowfall 0.0  
Snow Depth 0.00 in    
Sea Level Pressure  
Sea Level Pressure 29.94 in    
Wind  
Wind Speed 6 mph (South)    
Max Wind Speed 12 mph    
Max Gust Speed 20 mph    
Visibility 6 miles    
Events Rain    
T = Trace of Precipitation, MM = Missing Value Source: NWS Daily Summary

Daily Weather History Graph

Daily Weather History Graph

Search for Another Location

Airport or City:

Trip Planner

Search our weather history database for the weather conditions in past years. The results will help you decide how hot, cold, wet, or windy it might be!

Date:

Astronomy

Nov. 15, 2011 Rise Set
Actual Time 6:17 AM CST 4:45 PM CST
Civil Twilight 5:51 AM CST 5:11 PM CST
Nautical Twilight 5:21 AM CST 5:41 PM CST
Astronomical Twilight 4:52 AM CST 6:10 PM CST
Moon 8:54 PM CST (11/15) 10:15 AM CST (11/15)
Length of Visible Light 11h 20m
Length of Day
10h 27m
Waning Gibbous, 79% of the Moon is Illuminated
Nov 15
Waning Gibbous
Nov 18
Last Quarter
Nov 25
New
Dec 2
First Quarter
Dec 10
Full

Hourly Weather History & Observations

Time (CST) Temp. Dew Point Humidity Pressure Visibility Wind Dir Wind Speed Gust Speed Precip Events Conditions
12:30 AM 68.0 °F 66.2 °F 94% 29.98 in 9.0 mi South 8.1 mph 19.6 mph N/A   Overcast
12:53 AM 68.0 °F 64.9 °F 90% 29.96 in 9.0 mi South 9.2 mph - N/A   Mostly Cloudy
1:10 AM 68.0 °F 64.4 °F 88% 29.98 in 9.0 mi South 8.1 mph - N/A   Mostly Cloudy
1:53 AM 68.0 °F 64.9 °F 90% 29.97 in 9.0 mi South 5.8 mph - N/A   Overcast
2:17 AM 68.0 °F 64.4 °F 88% 29.99 in 8.0 mi SSW 6.9 mph - N/A   Overcast
3:31 AM 68.0 °F 64.4 °F 88% 29.98 in 9.0 mi South 3.5 mph - N/A   Overcast
3:53 AM 66.9 °F 64.9 °F 93% 29.96 in 9.0 mi South 6.9 mph - N/A   Overcast
4:09 AM 66.2 °F 64.4 °F 94% 29.97 in 8.0 mi SSE 6.9 mph - N/A   Overcast
4:53 AM 66.9 °F 64.9 °F 93% 29.95 in 9.0 mi South 6.9 mph - N/A   Overcast
7:18 AM 66.2 °F 66.2 °F 100% 29.99 in 1.8 mi South 4.6 mph - 0.01 in Rain Light Rain
7:53 AM 66.9 °F 66.0 °F 97% 29.98 in 3.0 mi SSE 5.8 mph - 0.05 in Rain Light Rain
8:10 AM 66.2 °F 66.2 °F 100% 29.99 in 3.0 mi SSE 4.6 mph - 0.01 in Rain Light Rain
8:13 AM 66.2 °F 66.2 °F 100% 29.99 in 2.5 mi SSE 5.8 mph - 0.01 in Rain Light Rain
8:33 AM 66.2 °F 66.2 °F 100% 29.99 in 1.0 mi SSE 5.8 mph - 0.03 in Rain Rain
8:40 AM 66.2 °F 66.2 °F 100% 29.99 in 1.5 mi SSE 6.9 mph - 0.04 in Rain Light Rain
8:48 AM 66.2 °F 66.2 °F 100% 29.99 in 2.5 mi SSE 5.8 mph - 0.04 in Rain Light Rain
8:53 AM 66.9 °F 66.0 °F 97% 29.98 in 1.8 mi SSE 6.9 mph - 0.04 in Rain Light Rain
9:15 AM 68.0 °F 66.2 °F 94% 29.99 in 2.5 mi South 6.9 mph - 0.02 in Rain Light Rain
9:29 AM 68.0 °F 66.2 °F 94% 29.99 in 3.0 mi South 4.6 mph - 0.02 in Rain Light Rain
9:39 AM 68.0 °F 66.2 °F 94% 29.99 in 3.0 mi SSE 8.1 mph - 0.02 in Rain Light Rain
9:53 AM 68.0 °F 66.0 °F 93% 29.97 in 4.0 mi SSE 8.1 mph - 0.03 in   Overcast
10:08 AM 68.0 °F 66.2 °F 94% 29.98 in 1.8 mi South 10.4 mph - 0.00 in Rain Light Rain
10:16 AM 68.0 °F 66.2 °F 94% 29.99 in 2.0 mi South 6.9 mph - 0.01 in Rain Light Rain
10:18 AM 68.0 °F 66.2 °F 94% 29.99 in 2.0 mi South 5.8 mph - 0.01 in Rain Light Rain
10:26 AM 68.0 °F 66.2 °F 94% 29.98 in 1.0 mi South 6.9 mph - 0.03 in Rain Rain
10:44 AM 68.0 °F 66.2 °F 94% 29.98 in 1.2 mi South 5.8 mph - 0.06 in Rain Light Rain
10:53 AM 68.0 °F 66.9 °F 96% 29.96 in 2.5 mi South 6.9 mph - 0.06 in Rain Light Rain
11:06 AM 68.0 °F 66.2 °F 94% 29.97 in 3.0 mi South 8.1 mph - 0.01 in Rain Light Rain
11:13 AM 68.0 °F 66.2 °F 94% 29.96 in 2.0 mi South 6.9 mph - 0.01 in Rain Light Rain
11:26 AM 69.8 °F 66.2 °F 88% 29.96 in 4.0 mi South 5.8 mph - 0.01 in   Overcast
11:38 AM 69.8 °F 66.2 °F 88% 29.95 in 1.8 mi South 10.4 mph - 0.02 in Rain Light Rain
11:53 AM 69.1 °F 66.9 °F 93% 29.93 in 1.5 mi South 9.2 mph 17.3 mph 0.05 in Rain Light Rain
12:11 PM 68.0 °F 66.2 °F 94% 29.94 in 1.5 mi South 8.1 mph - 0.02 in Rain Light Rain
12:25 PM 68.0 °F 66.2 °F 94% 29.93 in 1.5 mi South 6.9 mph - 0.06 in Rain Light Rain
12:33 PM 68.0 °F 66.2 °F 94% 29.93 in 1.8 mi South 6.9 mph - 0.07 in Rain Light Rain
12:37 PM 68.0 °F 66.2 °F 94% 29.93 in 2.0 mi South 5.8 mph - 0.07 in Rain Light Rain
12:53 PM 68.0 °F 66.9 °F 96% 29.91 in 3.0 mi South 6.9 mph - 0.08 in Rain Light Rain
1:41 PM 69.8 °F 68.0 °F 94% 29.91 in 9.0 mi South 4.6 mph - 0.00 in   Overcast
1:53 PM 70.0 °F 69.1 °F 97% 29.89 in 8.0 mi South 5.8 mph - 0.00 in   Mostly Cloudy
2:19 PM 71.6 °F 68.0 °F 88% 29.90 in 9.0 mi South 5.8 mph - N/A   Overcast
2:33 PM 71.6 °F 69.8 °F 94% 29.90 in 7.0 mi South 5.8 mph - N/A   Overcast
2:51 PM 69.8 °F 68.0 °F 94% 29.90 in 1.8 mi South 11.5 mph 18.4 mph 0.03 in Rain Rain
2:59 PM 69.8 °F 66.2 °F 88% 29.90 in 3.0 mi South 6.9 mph 17.3 mph 0.00 in Rain Light Rain
3:07 PM 69.8 °F 66.2 °F 88% 29.89 in 10.0 mi South 6.9 mph - 0.00 in   Overcast
3:53 PM 70.0 °F 68.0 °F 93% 29.87 in 9.0 mi South 3.5 mph - 0.00 in   Mostly Cloudy
3:59 PM 69.8 °F 68.0 °F 94% 29.88 in 9.0 mi South 3.5 mph - N/A   Overcast
4:53 PM 69.1 °F 68.0 °F 96% 29.88 in 9.0 mi South 3.5 mph - N/A   Overcast
5:33 PM 69.8 °F 68.0 °F 94% 29.90 in 9.0 mi SSE 4.6 mph - N/A   Overcast
5:44 PM 69.8 °F 68.0 °F 94% 29.91 in 9.0 mi SSE 4.6 mph - N/A   Overcast
5:53 PM 69.1 °F 68.0 °F 96% 29.90 in 8.0 mi SSE 3.5 mph - N/A   Overcast
6:20 PM 69.8 °F 66.2 °F 88% 29.92 in 8.0 mi SSE 3.5 mph - N/A   Mostly Cloudy
6:53 PM 68.0 °F 66.9 °F 96% 29.90 in 7.0 mi SSE 3.5 mph - N/A   Mostly Cloudy
7:49 PM 69.8 °F 66.2 °F 88% 29.91 in 9.0 mi SE 4.6 mph - N/A   Overcast
7:53 PM 69.1 °F 66.9 °F 93% 29.90 in 9.0 mi SSE 4.6 mph - N/A   Overcast
8:02 PM 69.8 °F 66.2 °F 88% 29.91 in 9.0 mi SSE 3.5 mph - N/A   Overcast
8:16 PM 69.8 °F 66.2 °F 88% 29.91 in 8.0 mi Calm Calm - N/A   Overcast
8:26 PM 69.8 °F 66.2 °F 88% 29.91 in 8.0 mi Calm Calm - N/A   Overcast
8:48 PM 69.8 °F 66.2 °F 88% 29.91 in 8.0 mi SSE 3.5 mph - N/A   Overcast
8:53 PM 69.1 °F 66.9 °F 93% 29.90 in 8.0 mi SSE 3.5 mph - N/A   Overcast
9:53 PM 68.0 °F 64.9 °F 90% 29.89 in 10.0 mi South 4.6 mph - N/A   Scattered Clouds
10:05 PM 68.0 °F 66.2 °F 94% 29.90 in 10.0 mi South 3.5 mph - N/A   Mostly Cloudy
10:13 PM 68.0 °F 66.2 °F 94% 29.90 in 10.0 mi SSE 3.5 mph - N/A   Mostly Cloudy
10:49 PM 68.0 °F 66.2 °F 94% 29.90 in 10.0 mi South 5.8 mph - N/A   Overcast
10:53 PM 68.0 °F 66.9 °F 96% 29.88 in 9.0 mi South 5.8 mph - N/A   Overcast
11:53 PM 70.0 °F 68.0 °F 93% 29.86 in 8.0 mi South 5.8 mph - N/A   Overcast